LINK

Last updated on Sat Jul 25 2026 00:02:05 GMT+0000 (Coordinated Universal Time)

1 69792U 26152A 26205.47451270 .00166613 00000+0 13520-2 0 9999 2 69792 20.5912 255.9182 0021516 118.0184 242.2442 15.68568511 3317
UTC large
Height (km)
Speed (km/s)
/
Latitude / Longitude
Inclination (degrees)
Orbital Period (minutes)
Azimuth
Elevation
Range (km)
Doppler Factor

Next 0 passes for location: London (51.5072 / 0.1276)

No passes found over London.
LINK